• Join FlightAware (Why Join?)
  • Login
  • US Flag 
04:55AM EDT


 

Airport Tracker/Info


-or-


 

Live Flight TrackerFlight Track Log ✈ DAL3673 ✈ 28-Aug-2014 ✈ KCVG - KGRR

Flight Track Log - Related Links

Times and Time Zones

All times are in EDT time to prevent confusion due to time zone crossing. See the DAL3673 flight status page for this flight to view local times or setup timezone preferences in your user account.

Time Position Orientation Groundspeed Altitude Reporting Facility
EDT Latitude Longitude Course Direction KTS MPH feet Rate Location/Type
08:00PM 39.0500 -84.6833 270° West 167 192 1,400  Level Cincinnati TRACON
08:01PM 39.0500 -84.7167 270° West 165 190 2,400 1,320 Climbing Cincinnati TRACON
08:02PM 39.0500 -84.8167 270° West 266 306 3,600 1,920 Climbing Cincinnati TRACON
08:03PM 39.0667 -84.9000 284° West 272 313 6,500 2,400 Climbing Cincinnati TRACON
08:04PM 39.1161 -84.9147 347° North 271 312 8,100 2,160 Climbing Indianapolis Center
08:05PM 39.2058 -84.9442 346° North 278 320 10,600 1,680 Climbing Indianapolis Center
08:06PM 39.2894 -84.9806 341° North 305 351 11,600 960 Climbing Indianapolis Center
08:07PM 39.3814 -85.0189 342° North 336 387 12,600 960 Climbing Indianapolis Center
08:08PM 39.4786 -85.0617 341° North 358 412 13,700 960 Climbing Indianapolis Center
08:09PM 39.5844 -85.0861 350° North 381 438 14,700 960 Climbing Indianapolis Center
08:10PM 39.6928 -85.1003 354° North 387 445 15,700 1,020 Climbing Indianapolis Center
08:11PM 39.8228 -85.1167 354° North 389 448 16,900 960 Climbing Indianapolis Center
08:12PM 39.9319 -85.1308 354° North 393 452 17,700 840 Climbing Indianapolis Center
08:13PM 40.0425 -85.1442 355° North 396 456 18,700 960 Climbing Indianapolis Center
08:14PM 40.1508 -85.1589 354° North 396 456 19,700 900 Climbing Indianapolis Center
08:15PM 40.2603 -85.1722 355° North 395 455 20,600 720 Climbing Indianapolis Center
08:16PM 40.3944 -85.1906 354° North 400 460 21,200 480 Climbing Indianapolis Center
08:17PM 40.4617 -85.1958 357° North 408 470 21,500 420 Climbing Chicago Center
08:18PM 40.6003 -85.2156 354° North 416 479 22,000 240 Climbing Chicago Center
08:19PM 40.7025 -85.2264 355° North 420 483 22,000  Level Chicago Center
08:20PM 40.8469 -85.2467 354° North 431 496 22,000  Level Chicago Center
08:21PM 40.9686 -85.2617 355° North 437 503 22,000  Level Chicago Center
08:22PM 41.0917 -85.2783 354° North 440 506 22,000  Level Chicago Center
08:23PM 41.2142 -85.2936 355° North 441 507 22,000  Level Chicago Center
08:24PM 41.3369 -85.3117 354° North 442 509 22,000  Level Chicago Center
08:25PM 41.4594 -85.3272 355° North 444 511 22,000  Level Chicago Center
08:26PM 41.6069 -85.3464 354° North 444 511 22,000 -180 Level Chicago Center
08:27PM 41.7225 -85.3633 354° North 446 513 21,700 -960 Descending Chicago Center
08:28PM 41.8453 -85.3806 354° North 451 519 20,100 -1,740 Descending Chicago Center
08:29PM 41.9653 -85.3981 354° North 440 506 18,500 -1,860 Descending Chicago Center
08:29PM 41.9897 -85.4000 357° North 440 506 18,200 -1,500 Descending Chicago Center
08:30PM 42.0858 -85.4144 354° North 433 498 17,000 -1,380 Descending Chicago Center
08:30PM 42.0947 -85.4142 North 435 501 16,800 -1,620 Descending Chicago Center
08:31PM 42.2042 -85.4283 355° North 422 486 15,400 -1,860 Descending Chicago Center
08:31PM 42.2331 -85.4336 352° North 421 484 14,900 -1,620 Descending Chicago Center
08:32PM 42.3436 -85.4475 355° North 405 466 13,300 -1,560 Descending Chicago Center
08:33PM 42.4492 -85.4631 354° North 389 448 11,700 -1,560 Descending Chicago Center
08:34PM 42.5408 -85.4733 355° North 341 392 10,100 -1,680 Descending Chicago Center
08:35PM 42.6183 -85.4836 354° North 293 337 8,200 -2,040 Descending Chicago Center
08:36PM 42.6881 -85.5458 327° Northwest 278 320 5,900 -2,100 Descending Chicago Center
08:37PM 42.7306 -85.6244 306° West 262 302 3,900 -1,620 Descending Chicago Center
08:38PM 42.7744 -85.6967 310° West 256 295 2,600 -720 Descending Chicago Center
08:39PM 42.8367 -85.6908 North 230 265 2,500 -180 Descending Chicago Center
08:41PM 42.8644 -85.6408 53° Northeast 189 217 2,300 -480 Descending Chicago Center
08:42PM 42.8714 -85.5864 80° East 161 185 1,500 -720 Descending Chicago Center
08:43PM 42.8769 -85.5378 81° East 144 166 800 -720 Descending Chicago Center
08:45PM 42.8808 -85.5228 North  Level Estimated